Regional Weather Roundup
Issued by NWS

Home | Current Version | Previous Version | Graphics & Text | Print | Product List | Glossary Off
Versions: 1 2 3 4 5 6 7 8 9 10 11 12 13 14 15 16 17 18 19 20 21 22 23 24 25 26 27 28 29 30 31 32 33 34 35 36 37 38 39 40 41 42 43 44 45 46 47 48 49 50

000
ASUS43 KMKX 021021
RWRWI

WISCONSIN REGIONAL WEATHER ROUNDUP
NATIONAL WEATHER SERVICE MILWAUKEE/SULLIVAN WI
500 AM CDT THU JUL 02 2015

NOTE: "FAIR" INDICATES FEW OR NO CLOUDS BELOW 12,000 FEET WITH NO
SIGNIFICANT WEATHER AND/OR OBSTRUCTIONS TO VISIBILITY.

WIZ001-002-006>008-014>016-023>028-021100-
NORTHWEST WISCONSIN

CITY           SKY/WX    TMP DP  RH WIND       PRES   REMARKS
SUPERIOR ARPT  PTCLDY    51  51 100 W3        30.01S
ASHLAND        CLEAR     46  45  96 SW3       30.03R
HAYWARD        CLEAR     49  47  93 CALM      30.04S
SIREN          NOT AVBL
CUMBERLAND     NOT AVBL
RICE LAKE      CLEAR     50  49  95 CALM      30.04S
CHETEK         NOT AVBL
LADYSMITH      NOT AVBL
EAU CLAIRE     PTCLDY    49  48  97 NE3       30.01S FOG
MENOMONIE      NOT AVBL
NEW RICHMOND   CLEAR     53  53 100 CALM      30.03R FOG
OSCEOLA        NOT AVBL
$$

WIZ003>005-009-010-017-018-021100-
NORTH CENTRAL WISCONSIN

CITY           SKY/WX    TMP DP  RH WIND       PRES   REMARKS
MANITOWISH WTR NOT AVBL
ARBOR VITAE    CLEAR     47  45  93 CALM      30.06R
WOODRUFF       CLEAR     47  45  93 CALM      30.06R
RHINELANDER    CLEAR     44  42  93 CALM      30.06R
EAGLE RIVER    NOT AVBL
LAND O LAKES   MOCLDY    41  41 100 CALM      30.07R
PHILLIPS       NOT AVBL
TOMAHAWK       NOT AVBL
MEDFORD        CLEAR     49  48  98 E3        30.05R
MERRILL        NOT AVBL
$$

WIZ029-030-035-036-043>047-021100-
CENTRAL WISCONSIN

CITY           SKY/WX    TMP DP  RH WIND       PRES   REMARKS
WAUSAU         CLEAR     50  47  89 E5        30.05R
MOSINEE        NOT AVBL
MARSHFIELD     FOG       54  51  90 SE8       30.05R VSB 3/4
STEVENS POINT  CLEAR     49  48  97 CALM      30.06R
WAUPACA        NOT AVBL
WAUTOMA        CLEAR     46  46 100 CALM      30.06R FOG
WISC RAPIDS    CLEAR     52  49  89 CALM      30.06R FOG
CAMP DOUGLAS   FOG       46  46 100 CALM      30.04R VSB 3/4
$$

WIZ011>013-019>022-031-037>040-048>050-021100-
NORTHEAST WISCONSIN

CITY           SKY/WX    TMP DP  RH WIND       PRES   REMARKS
ANTIGO         CLEAR     46  46 100 CALM      30.07R
SHAWANO        NOT AVBL
OCONTO         NOT AVBL
STURGEON BAY   CLEAR     46  43  87 CALM      30.08R
GREEN BAY      CLEAR     47  46  97 CALM      30.05R
MANITOWOC      CLEAR     46  45  96 MISG      30.05R
APPLETON       CLEAR     50  45  81 N6        30.06
CLINTONVILLE   NOT AVBL
OSHKOSH        CLEAR     50  45  83 CALM      30.04R
$$

WIZ032>034-041-042-053>061-021100-
SOUTHWEST WISCONSIN

CITY           SKY/WX    TMP DP  RH WIND       PRES   REMARKS
LA CROSSE      CLEAR     52  51  97 SE3       30.02R
SPARTA         NOT AVBL
VIROQUA        NOT AVBL
BOSCOBEL       FOG       52  51  97 CALM      30.04R VSB 1/4
PRAIRIE DU CHI NOT AVBL
PLATTEVILLE    NOT AVBL
$$

WIZ056-057-062-063-064-067-068-021100-
SOUTH CENTRAL WISCONSIN

CITY           SKY/WX    TMP DP  RH WIND       PRES   REMARKS
REEDSBURG      NOT AVBL
BARABOO/DELLS  NOT AVBL
LONE ROCK      FOG       50  48  93 CALM      30.05R VSB 1/4
MINERAL POINT  NOT AVBL
MADISON        CLEAR     48  46  93 N3        30.03R FOG
MIDDLETON      NOT AVBL
WATERTOWN      NOT AVBL
MONROE         NOT AVBL
JANESVILLE     CLEAR     50  46  87 N3        30.00F
$$

WIZ051-052-058>065-066-070>072-021100-
SOUTHEAST WISCONSIN

CITY           SKY/WX    TMP DP  RH WIND       PRES   REMARKS
MILWAUKEE      CLEAR     52  47  83 NE5       30.03R
WAUKESHA       NOT AVBL
MILWAUKEE/TIMM NOT AVBL
RACINE         CLEAR     51  47  86 N7        30.03S
BURLINGTON     NOT AVBL
KENOSHA        CLEAR     48  46  93 N5        30.01F
FOND DU LAC    CLEAR     46  44  93 CALM      30.04R
SHEBOYGAN      CLEAR     48  45  89 NW3       30.05R
WEST BEND      NOT AVBL
JUNEAU         NOT AVBL
$$

LSZ147-162-021100-
LAKE SUPERIOR

STATION/POSITION TIME  TEMP    WIND        PRES    WAVE
                       AIR SEA DIR/SP/G            HT/PER
                 (UTC) (F)     (DEG/KT/KT) (MB)    (FT/S)
W MID LAKE BUOY  0950   48 38  150/  2/  4 1016.5R   0
DEVILS ISLAND    1000   58     210/  6/  6 1016.4R
SAXON HARBOR     0900   51     200/  4/  6 1015.9S
$$

LMZ867-665-643>646-021100-
LAKE MICHIGAN

STATION/POSITION TIME  TEMP    WIND        PRES    WAVE
                       AIR SEA DIR/SP/G            HT/PER
                 (UTC) (F)     (DEG/KT/KT) (MB)    (FT/S)
CHAMBERS ISLAND  0900   49        CALM     1017.3S
S GREEN BAY BUOY 0900   59 68  100/  6/ 10 1018.5R
N MID LAKE BUOY  0950   49 41  330/  4/  4 1017.8R   0
NORTHPORT PIER   0900   50        CALM     1017.3S
SISTER BAY       0914   53     120/  5/  6   N/A
ALGOMA LAKESHORE 0910             CALM       N/A
KEWAUNEE LAKESHO 0900   47     310/  1/  3 1016.5S
SHEBOYGAN LAKESH 1000   56      20/ 11/ 12 1017.7R
PORT WASHINGTON  0900   53     330/  3/  6 1017.3S
ATWATER BUOY     1000   56      30/ 14/ 16 1017.7S
MILWAUKEE LAKESH 1000   56      20/ 12/ 14   N/A
KENOSHA   LAKESH 1000   56      20/ 14/ 15 1015.9F
$$

TC  - TEMPERATURE IN CELSIUS
VSB - VISIBILITY IN STATUTE MILES
WCI - WIND CHILL INDEX
HX  - HEAT INDEX




USA.gov is the U.S. government's official web portal to all federal, state and local government web resources and services.